Regional Weather Roundup
Issued by NWS

Home | Current Version | Previous Version | Graphics & Text | Print | Product List | Glossary On
Versions: 1 2 3 4 5 6 7 8 9 10 11 12 13 14 15 16 17 18 19 20 21 22 23 24 25 26 27 28 29 30 31 32 33 34 35 36 37 38 39 40 41 42 43 44 45 46 47 48 49 50
968
ASUS43 KLMK 240310
RWRKY
KENTUCKY REGIONAL WEATHER ROUNDUP
NATIONAL WEATHER SERVICE LOUISVILLE KY
1100 PM EDT WED MAY 23 2018

NOTE "FAIR" INDICATES FEW OR NO CLOUDS BELOW 12,000 FEET
WITH NO SIGNIFICANT WEATHER AND/OR OBSTRUCTIONS TO VISIBILITY.

KYZ001>023-026-027-061>063-070>075-240400-
WESTERN AND SOUTH CENTRAL KENTUCKY

CITY           SKY/WX    TMP DP  RH WIND       PRES   REMARKS
PADUCAH        FAIR      72  68  87 CALM      30.09S
HENDERSON      NOT AVBL
OWENSBORO      FAIR      76  64  66 NE6       30.12R
HOPKINSVILLE   FAIR      74  66  76 CALM      30.10R
BOWLING GREEN  FAIR      74  68  81 CALM      30.12R
GLASGOW        FAIR      73  63  70 NE3       30.13R
$$

KYZ024-025-028>034-038-045-046-053-240400-
NORTH CENTRAL KENTUCKY

CITY           SKY/WX    TMP DP  RH WIND       PRES   REMARKS
LOUISVILLE/SDF MOCLDY    76  60  57 NE5       30.13R
LOUISVILLE/LOU FAIR      73  61  65 NE6       30.14R
FORT KNOX      FAIR      71  59  66 N3        30.14R
$$

KYZ035>037-039>044-047>052-055>060-089>105-240400-
NORTHEAST KENTUCKY

CITY           SKY/WX    TMP DP  RH WIND       PRES   REMARKS
LEXINGTON      FAIR      69  58  67 NE5       30.16R
COVINGTON      MOCLDY    71  54  54 NE7       30.16R
FRANKFORT      FAIR      71  58  63 CALM      30.15R
$$

KYZ054-064>069-076>088-106>120-240400-
SOUTHEAST KENTUCKY

CITY           SKY/WX    TMP DP  RH WIND       PRES   REMARKS
JACKSON        FAIR      68  61  78 CALM      30.16R
LONDON         FAIR      70  63  78 N3        30.14R
SOMERSET       FAIR      68  61  77 MISG      30.15R
MIDDLESBORO    FAIR      68  65  91 CALM      30.14R
MONTICELLO     FAIR      68  65  90 W7        30.15R
$$





USA.gov is the U.S. government's official web portal to all federal, state and local government web resources and services.